Location: West Cummington
(42.4920°N, 72.9680°W)
Time: 05:46:20
(UTC-04:00)

Cosmos 2221 - Visible Passes

Search period start: 03 June 2015 00:00
Search period end: 13 June 2015 00:00
Orbit: 596 x 619 km, 82.5° (Epoch: 02 June)

Date Brightness Start Highest point End Pass type
(mag) Time Alt. Az. Time Alt. Az. Time Alt. Az.
03 Jun 2.7 22:28:03 10° NNW 22:32:27 69° W 22:34:37 29° S visible
04 Jun 4.3 21:05:11 10° NNE 21:08:14 18° ENE 21:11:23 10° ESE visible
04 Jun 3.6 22:41:58 10° NNW 22:46:07 39° W 22:48:31 21° SSW visible
05 Jun 3.6 21:18:18 10° NNE 21:22:10 30° ENE 21:25:32 13° SE visible
05 Jun 4.5 22:56:08 10° NW 22:59:42 24° W 23:02:27 13° SW visible
06 Jun 2.9 21:31:43 10° N 21:36:01 50° ENE 21:39:27 15° SSE visible
06 Jun 5.1 23:10:48 10° NW 23:13:15 14° W 23:15:31 10° WSW visible
07 Jun 2.5 21:45:20 10° N 21:49:46 87° E 21:53:25 15° S visible
08 Jun 3.2 21:59:08 10° NNW 22:03:27 54° W 22:07:25 12° S visible
09 Jun 4.1 22:13:08 10° NNW 22:17:04 31° W 22:20:55 10° SSW visible
10 Jun 4.9 22:27:28 10° NW 22:30:39 19° W 22:33:40 10° SW visible
11 Jun 2.6 21:02:38 10° N 21:07:02 64° E 21:11:23 10° SSE visible
11 Jun 5.4 22:42:41 10° WNW 22:44:10 11° W 22:45:23 10° W visible
12 Jun 2.8 21:16:21 10° NNW 21:20:45 74° W 21:25:06 10° S visible
